Wind_Speed
11 12 13 13 13 14 14 14 14 15 16 19 20 20 21 22 24 25 24 25 25 26 24 24 26 27 27 29 28 25 24 26 28 28 29 31 29 27 25 24 24 23 20 20 20 20 21 21 23 24 24 24 24 23 24 24 24 24 22 22 22 23 24 22 19 19 18 17 18 18 17 17 18 17 15 16 15 12 12 13 13 13 13 12 12
11 12 13 13 14 14 14 13 14 15 17 19 20 20 21 22 24 25 25 25 26 26 25 24 25 26 26 28 26 22 22 24 26 26 27 29 28 27 26 25 25 23 21 21 21 21 22 22 23 24 24 25 25 25 25 25 26 25 23 23 24 25 26 24 21 20 19 19 18 18 18 17 17 16 15 16 14 12 12 13 13 13 12 12 12
12 13 13 14 14 14 13 13 14 16 17 19 19 20 21 22 23 24 25 26 26 27 26 26 25 25 25 27 24 20 20 22 25 25 25 26 25 25 26 26 25 23 22 23 23 22 23 23 23 23 24 25 25 24 25 26 26 25 25 26 26 26 26 24 21 20 20 19 17 18 18 18 18 16 14 15 14 13 13 13 13 13 12 12 13
13 13 14 14 14 14 13 14 15 16 17 19 19 20 21 22 23 24 24 25 26 26 27 27 27 25 25 25 24 20 19 21 23 23 22 21 22 24 25 25 25 23 23 23 24 24 24 24 23 23 24 25 24 24 24 25 25 25 28 29 26 26 28 25 21 20 20 19 19 19 18 18 20 17 13 14 14 13 14 14 13 13 13 13 13
13 14 14 14 14 14 14 14 15 16 17 19 20 20 21 22 23 24 24 25 25 26 26 27 28 27 25 24 24 21 19 21 22 21 21 21 21 22 23 24 25 24 23 23 25 25 25 25 24 24 26 25 25 24 24 24 25 27 29 27 24 27 29 24 19 19 21 20 19 19 18 19 21 17 12 13 15 14 14 15 14 13 12 12 11
14 15 15 15 15 15 14 14 15 16 18 19 21 21 21 22 23 24 25 25 25 26 27 27 28 27 26 25 23 21 21 21 21 21 22 22 21 21 21 23 25 24 23 24 25 26 26 25 24 26 27 26 26 25 25 25 26 27 27 25 24 28 28 22 18 20 21 20 19 19 19 21 20 17 15 15 16 16 14 14 14 13 11 11 11
16 16 16 15 15 15 14 14 15 17 19 20 21 22 22 22 23 24 25 26 26 27 27 28 28 28 27 25 23 22 22 22 22 21 22 23 21 20 21 22 23 24 24 24 24 26 25 25 26 28 28 26 25 25 26 26 25 25 24 23 24 26 25 22 20 22 22 21 20 19 20 20 18 16 16 15 15 15 13 12 13 12 11 11 11
17 17 16 16 16 15 15 15 16 18 20 21 22 22 22 23 24 25 26 27 28 28 28 29 29 28 26 23 22 22 23 23 22 21 21 22 21 20 21 21 21 23 24 22 22 24 24 24 26 27 26 24 22 23 25 23 21 21 21 22 23 23 23 23 22 23 24 22 20 20 20 20 19 17 17 15 12 13 12 11 11 11 11 12 11
17 17 16 16 16 16 16 17 18 19 21 22 22 23 23 24 24 25 27 28 28 29 29 29 29 28 25 21 21 22 23 23 22 22 22 22 22 20 18 18 19 20 21 21 21 21 21 23 25 26 26 25 23 23 23 20 19 20 21 22 22 22 23 23 21 22 22 21 21 21 21 22 21 20 20 16 12 10 10 11 12 12 12 13 12
16 16 16 16 16 16 17 18 19 20 21 22 23 24 24 25 25 26 28 29 29 29 29 29 29 28 25 21 20 21 22 22 23 24 23 23 21 19 16 16 17 19 20 21 20 19 21 22 21 22 25 25 23 22 21 20 20 20 22 23 23 22 22 22 22 22 22 22 22 22 23 23 20 20 20 15 11 12 12 13 14 13 14 15 14
15 15 16 16 16 17 17 18 19 20 21 22 23 24 25 26 27 28 29 30 30 29 28 28 27 27 25 22 20 20 20 21 22 24 24 23 21 19 16 16 18 19 20 22 22 21 22 22 20 22 24 23 20 21 22 22 22 21 22 23 23 22 22 22 22 23 24 24 24 23 24 23 20 21 19 14 14 16 15 14 14 13 14 15 12
15 15 16 16 17 17 18 18 19 20 20 21 23 24 25 27 28 30 30 31 31 30 29 28 27 25 23 22 21 20 19 19 19 20 22 23 23 20 17 16 17 19 20 21 20 21 22 23 22 23 23 22 22 22 22 22 21 21 23 23 23 24 24 23 23 22 23 25 26 24 24 23 20 20 17 15 18 19 16 16 17 16 15 14 11
16 16 17 17 17 17 18 18 19 19 20 21 22 24 26 28 30 31 31 31 31 30 29 28 26 25 22 20 20 20 19 19 18 17 19 21 21 20 17 16 17 18 19 18 18 21 24 24 24 23 22 22 23 23 22 21 21 22 23 23 24 24 23 23 23 21 20 23 25 24 24 23 21 20 18 19 20 20 18 20 22 21 19 16 12
16 17 17 18 18 17 17 18 18 19 20 21 22 24 26 28 31 32 32 31 30 30 29 27 26 24 22 20 20 20 19 19 18 18 17 19 20 19 18 17 17 18 19 19 20 21 21 21 23 23 23 23 23 22 21 21 22 22 22 22 22 23 23 24 25 23 21 24 26 25 24 24 23 22 22 21 20 20 21 22 23 22 20 18 16
17 17 18 18 18 18 18 18 19 20 20 22 23 24 26 28 30 32 32 31 31 30 30 28 25 23 20 20 20 20 19 18 18 19 19 19 19 18 18 19 18 18 19 20 19 18 17 19 22 24 24 23 22 21 20 21 22 22 21 22 23 22 21 21 22 22 22 24 26 26 25 25 24 23 21 19 18 19 19 19 20 21 20 20 19
20 19 18 18 18 18 18 19 19 20 21 22 23 25 27 28 30 31 31 30 30 30 29 29 26 23 20 19 19 19 19 18 18 21 21 20 18 17 18 20 19 19 19 19 17 17 18 19 20 22 23 22 20 19 20 21 21 21 21 22 23 23 22 20 20 20 21 24 26 26 27 26 24 22 21 19 17 17 17 18 20 21 21 21 19
19 18 18 17 17 18 18 19 20 20 21 21 23 25 27 28 30 30 29 28 27 27 27 26 24 22 20 18 18 19 19 18 18 19 20 19 18 17 18 19 19 20 21 20 19 18 19 20 19 19 20 20 19 19 19 18 19 22 22 22 23 23 23 23 22 22 23 24 24 23 25 24 21 20 20 18 17 18 18 19 20 21 22 21 19
16 16 16 16 16 17 18 19 20 20 20 21 22 24 26 28 29 29 27 26 25 25 25 24 22 21 20 18 17 17 16 14 13 14 17 19 19 17 18 19 19 18 19 20 19 16 16 17 16 14 15 18 19 18 18 17 18 23 24 24 25 24 24 24 25 25 25 26 25 23 23 23 20 18 19 19 19 20 20 20 20 22 23 22 22
14 15 16 16 16 17 17 18 19 19 19 20 22 23 24 25 26 26 24 22 22 23 23 22 20 18 16 15 14 13 14 13 11 13 15 16 16 16 16 16 16 16 17 19 19 17 15 14 13 11 12 15 16 16 17 18 20 22 22 24 27 26 24 25 26 26 26 26 26 24 23 22 21 20 20 20 19 20 20 19 21 23 25 26 26
13 14 15 15 16 17 17 18 19 19 19 20 21 22 22 21 22 22 20 19 18 19 20 19 18 15 12 12 12 10 10 9 10 14 16 14 15 16 16 16 17 17 17 17 16 14 12 12 12 12 11 13 14 15 17 20 22 22 21 23 25 25 24 25 26 25 25 25 25 25 24 23 23 22 21 20 19 19 19 20 22 24 25 26 24
13 14 14 15 15 16 16 17 18 18 19 19 19 19 19 18 18 18 18 17 16 16 17 16 15 12 9 10 10 10 7 2 4 9 15 16 16 16 16 16 16 14 12 12 12 11 11 12 12 12 13 15 16 17 19 21 23 23 22 22 22 22 24 27 27 26 26 26 27 27 26 25 24 23 22 21 20 20 20 21 22 24 25 24 21
12 12 13 13 13 14 15 16 16 17 17 17 16 17 16 16 15 15 16 16 16 16 15 14 14 12 10 8 8 10 11 8 7 10 13 14 13 12 12 12 11 8 5 6 9 9 9 10 10 11 14 18 19 18 19 21 23 24 23 23 23 24 26 28 29 28 29 30 30 29 27 25 24 23 23 22 22 22 22 22 22 23 24 22 19
11 11 12 12 11 13 14 14 15 16 15 15 15 15 14 14 13 13 14 16 17 16 15 14 14 14 12 9 7 8 9 9 10 10 9 8 9 10 11 10 10 10 7 6 8 9 9 8 10 12 15 19 22 22 20 20 22 24 24 24 26 28 29 31 32 32 32 31 30 28 27 25 24 24 25 25 25 24 23 22 21 22 22 21 20
10 9 10 11 11 12 14 15 15 15 14 14 14 13 12 11 11 11 11 13 15 14 13 13 12 11 10 9 7 7 7 6 6 7 6 7 7 8 10 11 11 13 14 12 11 13 14 13 13 13 15 19 23 23 20 19 21 23 25 26 29 31 33 34 34 33 32 31 29 27 26 25 25 26 27 27 26 25 24 23 22 21 20 20 20
11 10 10 11 12 13 14 14 15 15 14 13 13 12 10 9 9 10 10 11 11 10 9 8 9 9 8 8 8 8 7 7 6 6 7 8 8 8 9 10 11 14 17 18 17 15 15 15 14 13 13 15 18 19 21 23 25 27 29 30 31 33 35 35 35 34 32 30 28 26 25 26 26 27 28 27 27 26 26 24 21 19 18 18 19
12 12 11 11 12 13 14 15 15 14 14 13 13 12 11 10 9 9 9 9 9 8 6 6 7 9 9 9 9 9 9 8 8 8 8 9 10 10 11 12 13 15 16 16 16 14 12 12 12 12 13 18 21 22 25 28 30 32 34 33 32 33 34 34 33 32 29 26 25 25 26 27 28 29 29 28 27 27 26 21 17 16 17 17 17
10 11 12 11 11 12 14 15 15 15 13 12 12 12 12 11 10 9 10 10 8 7 6 5 5 7 8 8 8 8 9 9 9 8 9 9 10 12 13 13 15 17 15 12 12 12 11 11 13 15 18 21 22 22 23 24 26 29 30 30 29 29 30 30 29 27 26 26 26 28 29 30 30 30 29 28 27 26 23 19 17 17 18 17 17
9 9 10 11 12 12 13 13 13 12 12 11 11 12 12 11 11 9 9 9 8 7 7 6 4 4 6 8 9 9 9 9 8 7 7 7 8 10 12 14 16 18 18 16 15 15 15 16 16 18 21 23 24 24 25 26 28 28 28 29 29 29 29 28 26 26 27 29 30 30 31 31 31 30 29 28 27 25 22 20 19 19 18 17 16
7 7 9 10 11 11 12 12 11 10 10 10 10 11 11 10 10 9 8 8 8 8 8 8 7 6 5 6 7 9 10 11 11 11 9 8 7 7 8 9 12 15 16 18 18 19 19 20 20 21 23 25 25 25 25 26 27 28 26 25 25 25 25 25 25 27 28 29 29 29 29 29 30 30 28 27 25 23 21 19 18 17 16 15 15
9 7 8 9 10 10 10 12 12 11 9 9 9 9 10 9 9 9 9 8 9 9 9 9 9 8 7 6 6 7 8 8 9 11 12 12 12 11 10 10 10 11 13 14 15 17 18 19 20 21 23 24 24 24 24 24 24 25 24 24 24 24 25 26 26 26 26 26 26 26 27 27 27 26 24 22 20 18 16 15 13 12 13 13 15
10 9 9 9 9 10 10 11 12 12 12 12 12 12 12 12 11 11 11 11 12 12 12 12 11 11 10 9 8 7 8 8 8 9 9 10 11 12 13 13 13 14 14 15 15 16 17 18 19 20 21 22 23 24 24 24 24 24 24 25 25 26 26 27 28 27 27 26 26 25 24 22 20 19 17 16 14 13 11 10 9 11 12 14 15
10 10 9 9 10 10 10 10 12 12 13 14 14 15 15 14 14 14 14 15 15 15 15 14 14 14 13 13 12 11 10 9 9 9 9 9 9 9 9 10 10 11 12 13 14 15 16 17 19 20 21 21 22 22 22 22 22 23 23 24 24 24 25 25 26 26 25 23 21 19 18 16 15 15 14 12 11 9 8 9 11 13 14 14 14
10 10 10 10 10 10 10 10 11 12 12 13 14 15 15 15 15 16 16 16 16 16 16 16 15 15 16 16 15 15 15 14 13 12 11 10 9 9 8 8 7 7 7 8 9 10 12 14 15 17 18 19 20 20 20 20 20 20 20 19 19 19 19 19 19 19 17 16 14 13 13 13 13 12 11 10 9 9 9 11 12 13 14 14 14
10 10 11 11 11 11 11 11 10 11 12 13 14 14 14 15 16 16 16 16 16 15 15 15 16 16 16 16 17 17 16 16 16 16 15 14 13 12 12 10 9 8 8 8 7 7 7 8 9 11 12 13 14 15 15 15 15 15 14 13 12 11 12 12 11 10 10 9 9 9 9 9 9 9 8 8 9 10 11 12 12 13 14 13 12
12 12 12 12 12 12 12 11 11 11 12 12 13 14 14 15 16 16 17 16 16 15 15 15 15 16 16 16 17 17 17 17 17 17 16 16 15 15 15 15 14 14 12 11 11 10 9 9 8 8 9 9 9 9 9 9 10 10 9 7 6 7 7 6 6 6 7 7 7 7 6 6 6 7 7 8 9 10 11 11 11 12 12 11 10
13 13 12 12 13 13 12 12 12 13 13 13 13 13 13 14 15 15 16 16 16 16 16 16 16 16 16 16 16 15 15 16 16 16 16 16 15 15 14 14 14 14 13 13 13 12 11 11 10 10 9 9 9 8 7 6 5 5 4 3 3 4 4 4 4 5 6 5 4 4 4 5 7 8 8 8 9 9 10 11 11 12 11 10 10
13 13 13 13 13 13 13 13 12 13 14 14 14 14 14 14 14 15 15 15 16 16 17 17 18 17 17 17 16 15 15 14 14 14 14 14 14 14 14 14 13 13 13 12 12 11 11 10 10 10 9 9 9 9 8 7 6 5 3 2 2 2 2 3 3 3 3 3 4 4 5 6 7 8 8 9 9 10 11 12 11 11 11 11 11
12 12 12 12 13 12 12 12 12 13 13 14 14 14 15 15 16 15 16 16 16 17 17 17 17 17 18 18 17 17 16 15 14 14 14 14 14 15 15 15 14 14 14 14 13 13 12 11 10 9 9 8 8 8 9 9 8 6 5 4 3 3 3 2 2 3 4 4 5 6 6 7 8 8 8 9 9 10 11 11 11 11 11 11 10
10 8 9 11 12 13 12 12 13 13 13 13 14 14 15 16 17 17 17 16 16 16 17 17 17 18 18 19 18 17 16 16 15 15 15 15 15 15 15 15 15 14 14 14 14 14 14 12 11 10 10 9 8 8 8 9 8 8 7 6 6 5 5 5 5 5 5 6 7 7 7 8 9 10 10 10 10 11 11 11 11 11 11 10 9
9 9 10 11 12 12 11 11 12 12 13 12 12 13 14 15 16 16 16 16 16 16 17 17 18 19 20 20 19 18 18 19 18 17 17 16 15 15 15 14 14 14 14 14 14 14 14 12 11 11 11 11 10 9 8 8 9 9 8 8 7 7 7 7 7 7 7 8 8 8 9 10 10 10 10 10 10 10 10 11 11 11 10 9 8
8 9 10 10 10 10 10 11 12 13 12 11 12 13 14 14 14 14 15 15 15 16 17 17 17 18 20 20 20 20 21 21 21 20 19 18 17 16 16 15 15 15 15 14 14 14 14 13 12 11 11 11 11 10 9 9 8 8 8 8 8 8 8 8 8 7 8 9 9 9 9 10 9 9 9 10 10 10 10 10 10 10 8 7 6
7 7 8 8 9 9 9 11 12 13 12 12 11 11 12 13 14 14 14 14 15 15 16 17 17 18 19 20 20 20 21 22 22 22 21 20 20 19 18 17 17 16 15 15 14 14 14 13 13 12 11 11 11 10 10 9 8 8 7 7 7 7 7 7 7 8 8 8 7 8 8 9 8 8 9 9 9 9 9 9 9 8 7 6 6
6 6 6 7 7 7 7 9 10 11 12 12 12 12 11 11 12 12 13 14 14 15 16 18 18 18 18 19 19 20 20 20 21 21 22 21 21 20 20 20 20 18 17 16 15 15 14 13 13 12 12 11 11 10 10 9 9 8 7 6 6 6 6 7 7 8 7 7 8 8 9 8 8 8 8 8 8 8 8 9 8 7 6 6 5
4 5 5 6 6 6 7 8 9 10 11 11 11 11 10 9 9 10 11 11 12 13 15 17 17 18 19 19 19 20 19 19 19 20 21 21 21 20 20 20 20 19 19 18 17 16 15 14 14 14 13 12 12 11 10 9 9 8 7 6 6 6 6 6 6 6 6 7 8 9 9 9 9 9 8 8 8 8 8 8 8 7 6 5 5
4 4 4 4 4 4 5 7 8 9 9 9 9 8 7 7 8 9 9 10 11 11 13 14 14 15 16 17 18 19 19 19 19 20 19 19 19 19 20 19 19 19 19 19 18 18 17 16 14 14 13 13 12 11 10 10 9 9 8 7 7 6 6 6 7 7 7 8 9 9 9 10 9 8 8 8 8 7 8 8 7 6 5 5 5
4 3 3 4 4 3 4 6 7 7 7 7 7 7 8 9 8 9 10 11 11 11 12 12 13 13 13 12 13 15 16 17 19 20 20 19 19 19 19 19 18 18 18 19 19 19 18 17 16 14 13 13 13 12 11 11 10 10 9 9 8 8 8 8 8 8 8 9 9 9 9 9 9 9 9 9 8 8 8 8 7 6 6 5 5
3 2 2 3 5 4 4 5 6 6 7 8 8 8 10 10 10 10 12 12 11 12 12 12 12 14 15 13 12 13 14 15 17 19 20 21 21 20 19 18 17 17 17 18 19 19 19 18 17 16 14 13 13 13 12 12 12 11 10 10 10 10 10 9 9 9 9 9 9 9 9 9 10 10 10 9 9 9 9 8 7 7 6 6 6
1 0 1 2 2 3 3 4 6 6 6 8 8 8 10 9 7 6 7 8 8 9 10 10 11 13 14 15 15 15 15 16 17 19 20 21 22 22 21 19 18 18 18 17 18 18 18 17 16 16 15 14 13 13 13 13 13 12 11 10 11 11 10 10 10 10 10 10 10 10 10 10 10 10 10 10 10 10 10 9 8 8 7 7 6
1 2 2 3 3 3 3 4 4 5 5 4 4 6 9 7 4 3 5 6 5 4 6 9 9 8 8 11 14 15 16 18 19 20 20 21 22 23 23 21 19 18 18 17 17 16 16 15 15 16 16 15 14 14 13 13 13 12 12 11 11 11 11 11 11 11 11 11 11 11 11 11 11 11 12 12 12 11 11 10 9 9 8 8 7
4 4 4 3 2 3 3 3 3 4 5 4 4 6 8 7 5 4 6 7 6 5 5 8 9 8 8 10 13 14 16 17 17 17 17 18 20 21 22 22 21 19 19 18 18 16 14 13 14 15 15 15 15 14 13 13 12 12 12 12 12 11 11 12 12 12 12 12 12 12 12 12 12 13 14 14 13 13 12 11 11 10 9 8 8
6 6 6 5 4 4 4 5 5 5 7 8 7 6 6 6 7 8 8 7 6 6 6 8 9 9 11 12 13 13 14 15 15 16 16 17 18 19 19 20 21 21 19 19 19 17 14 13 14 15 15 15 14 14 13 13 12 12 12 12 12 12 12 12 13 13 13 13 13 13 13 14 14 15 15 15 15 14 13 13 12 11 10 9 9
Wind_Direction
273 279 283 284 287 290 292 294 295 300 306 311 314 317 318 318 317 317 318 316 314 312 308 303 302 302 305 310 304 289 277 272 266 266 271 271 267 266 265 259 250 247 246 242 237 236 234 228 224 226 227 227 224 222 221 224 228 227 225 227 231 230 227 225 224 225 226 224 226 229 226 225 229 224 221 229 232 226 224 229 235 239 241 241 239
279 281 281 282 285 288 289 290 295 303 310 314 318 320 321 321 320 319 319 318 315 315 313 307 304 303 305 310 307 292 280 275 268 268 274 273 269 268 267 261 253 247 244 241 237 236 234 230 227 228 228 225 221 222 223 224 229 229 226 226 229 232 230 223 220 223 224 225 227 227 222 224 230 226 221 228 229 226 228 232 235 237 239 240 242
276 276 277 280 284 287 288 290 296 305 311 317 320 322 323 323 322 321 320 318 317 317 316 311 306 303 304 309 308 292 280 275 270 271 276 275 272 273 270 262 256 249 242 239 236 235 234 233 232 230 228 224 222 223 224 226 230 229 228 227 227 234 236 225 219 222 223 226 229 225 220 222 229 226 220 225 225 222 229 232 234 238 240 242 246
271 273 276 281 284 286 286 288 295 304 312 320 322 323 325 325 325 324 321 319 318 317 316 312 307 304 302 305 305 294 281 279 277 278 284 284 281 281 275 265 258 251 244 240 236 235 234 232 231 230 227 224 222 223 225 227 229 228 228 227 225 233 236 225 217 220 222 223 223 222 218 219 225 224 219 225 224 220 228 234 236 238 240 243 246
270 274 277 280 281 282 284 287 295 305 313 321 324 324 326 326 326 326 324 323 322 320 316 311 307 304 299 298 300 295 284 280 280 284 290 289 283 281 279 273 265 256 248 240 235 233 232 229 228 229 227 224 221 223 225 226 227 228 231 230 228 234 231 219 214 220 221 218 218 219 213 211 220 223 216 223 229 224 226 234 240 239 233 235 237
273 275 275 276 277 279 284 289 298 307 313 320 325 325 325 325 326 326 326 326 327 325 320 315 309 305 299 294 294 293 286 279 279 283 288 287 280 275 276 275 268 260 251 240 232 232 232 227 225 226 224 219 218 223 225 223 224 228 234 236 234 233 229 216 212 220 219 213 214 215 210 210 219 224 221 223 230 232 229 230 238 238 224 217 217
273 274 274 275 278 282 288 294 301 308 312 316 321 323 323 323 324 326 327 327 328 327 324 320 314 308 303 295 288 287 286 283 281 279 283 286 281 274 272 270 263 257 253 245 234 233 235 230 225 226 224 217 215 221 223 222 222 226 232 235 233 233 233 222 212 213 215 214 215 213 210 212 217 224 229 225 220 227 231 226 229 229 217 209 212
274 276 277 278 281 284 291 297 301 305 308 311 315 319 320 321 323 325 328 329 329 328 325 322 318 313 309 299 286 279 280 283 281 276 279 286 285 280 274 266 256 251 252 247 235 232 237 234 228 229 229 221 215 219 223 223 225 229 232 233 231 231 235 231 218 208 208 211 214 210 205 209 211 213 223 225 216 221 227 224 220 218 215 214 215
275 278 280 280 283 287 292 296 299 302 304 306 310 314 317 320 323 326 328 329 328 327 326 324 320 316 313 303 288 277 276 280 280 276 277 282 286 284 273 259 252 251 252 246 235 233 238 237 231 231 229 222 213 216 223 223 223 229 232 231 229 226 230 235 226 212 208 209 211 208 203 207 210 211 219 227 227 222 219 217 217 214 216 221 218
276 279 281 283 286 289 292 294 297 299 301 303 307 311 316 320 324 326 327 328 328 327 326 326 323 319 314 305 292 281 276 277 278 276 275 278 282 281 270 257 252 249 247 244 241 243 247 246 243 238 229 219 210 212 219 218 217 223 227 228 229 226 226 231 226 219 218 216 213 210 208 207 209 214 223 228 219 209 208 213 219 216 216 224 227
278 280 284 287 290 291 293 294 295 297 299 301 305 310 315 320 324 326 327 328 328 327 326 326 326 322 316 307 297 287 282 280 276 272 270 271 272 267 258 257 258 252 243 238 237 239 244 248 249 243 232 221 213 211 215 216 215 219 224 226 227 225 224 227 223 219 220 218 215 215 213 208 207 214 220 214 204 207 211 218 227 222 216 223 228
284 287 290 292 294 294 295 295 296 296 298 300 304 309 314 319 322 325 326 327 327 327 326 326 326 323 317 308 299 291 287 284 278 268 263 265 268 266 258 257 261 254 240 232 232 236 240 242 243 240 231 223 218 216 215 218 218 219 222 224 225 223 222 225 223 221 223 221 217 218 216 210 207 213 213 202 204 213 214 217 228 232 231 234 227
291 293 294 294 294 295 295 296 296 297 298 300 305 309 314 318 320 323 325 326 326 326 326 327 326 323 318 309 300 293 288 288 287 276 264 261 266 272 270 265 262 251 237 231 235 239 239 238 238 237 231 226 225 220 216 218 222 222 223 224 225 225 223 220 216 215 222 224 218 214 213 208 204 207 207 203 207 213 211 214 225 232 235 243 242
293 294 293 293 293 293 294 295 295 297 300 303 307 310 313 317 319 322 324 325 326 325 325 326 325 323 318 310 303 297 291 291 289 282 273 265 264 268 268 265 261 251 240 237 238 239 237 233 232 235 233 228 228 224 217 219 225 226 226 227 227 230 227 219 211 207 211 217 216 209 206 207 208 208 206 205 206 208 208 214 224 229 234 242 243
294 294 291 290 290 291 293 294 295 298 301 304 307 310 313 317 319 321 322 324 324 324 324 324 324 322 318 311 306 301 296 290 280 276 277 273 266 264 264 261 256 248 244 243 242 239 239 238 237 238 234 227 225 224 218 220 227 229 228 225 225 229 229 222 214 209 206 208 209 206 204 210 215 212 204 203 207 209 212 220 226 231 237 240 235
295 295 292 290 290 291 293 295 296 298 301 305 308 311 314 316 318 320 321 322 322 322 321 322 323 323 319 311 305 304 300 291 279 275 277 275 266 259 257 255 252 248 246 246 243 239 241 244 242 239 233 225 223 223 219 219 226 230 227 223 221 223 225 222 213 206 204 204 205 207 209 213 217 212 202 202 210 215 221 230 235 238 242 244 242
299 299 298 298 297 296 296 297 298 299 302 306 309 312 314 316 317 318 319 319 318 317 317 318 319 320 318 314 308 304 298 292 287 280 272 269 265 258 255 255 253 248 243 240 241 243 242 241 239 233 225 219 218 221 221 220 225 228 224 219 217 217 219 219 212 204 202 203 204 209 214 214 212 208 205 208 217 224 230 236 242 244 245 249 253
303 302 304 305 304 303 302 300 300 301 305 308 311 313 315 315 316 317 318 318 316 316 316 316 316 315 314 314 314 310 305 303 299 284 272 272 271 261 254 253 252 247 241 238 238 239 234 230 229 224 220 217 215 218 224 226 226 228 224 214 209 211 214 214 211 204 199 198 201 207 210 210 208 210 216 220 224 230 236 239 245 251 254 258 259
302 302 304 306 307 308 306 304 304 305 308 310 311 314 315 315 316 317 318 318 317 316 317 317 319 318 317 320 324 322 315 308 296 287 288 286 275 262 252 248 245 239 235 232 228 225 224 221 218 216 219 220 218 221 227 227 227 232 230 214 205 204 207 207 203 200 198 199 203 208 207 209 214 220 226 229 230 235 241 246 252 258 262 264 264
299 300 303 305 308 309 307 306 305 305 306 307 308 312 315 317 317 319 320 320 320 322 323 324 325 328 334 342 345 338 324 304 280 277 277 267 255 253 249 243 239 231 230 233 232 233 240 241 236 236 237 233 231 232 232 228 227 230 227 216 206 203 206 207 199 195 198 203 208 212 213 215 220 224 227 230 234 240 248 253 257 260 259 260 262
296 297 301 304 306 307 304 303 304 304 305 306 307 311 315 317 318 322 326 327 326 330 334 336 336 338 355 6 355 339 334 331 197 229 248 252 252 248 242 237 232 223 225 236 238 239 245 244 242 248 250 247 245 242 236 234 233 229 220 213 210 209 211 211 204 199 202 208 211 213 215 218 222 225 228 231 236 243 250 254 255 255 255 257 260
291 292 295 298 302 303 302 303 305 306 309 311 309 312 317 318 319 326 335 337 336 336 341 352 358 360 12 17 346 324 323 308 260 244 254 260 251 235 234 234 220 202 199 212 216 229 245 245 245 253 256 255 257 255 246 239 236 230 222 218 218 216 216 217 216 214 214 214 214 215 218 221 223 226 229 232 238 246 250 250 250 252 255 258 260
289 289 290 291 296 301 303 305 306 307 311 313 312 315 320 322 323 330 340 346 346 345 351 4 14 17 19 15 341 317 320 304 278 269 268 261 242 234 245 246 224 216 224 212 201 216 239 249 252 255 256 255 257 259 254 242 233 227 223 223 222 220 218 220 223 221 217 214 215 218 220 221 222 226 230 235 241 246 247 244 244 249 254 258 260
299 294 289 289 294 299 302 305 306 308 310 312 314 318 322 325 326 327 336 345 348 351 358 6 13 17 19 17 358 332 328 318 290 271 259 252 249 250 256 255 242 239 246 248 234 228 233 237 242 255 265 264 259 256 251 241 232 225 220 220 221 221 221 221 222 221 216 214 215 216 217 221 226 232 238 241 245 246 243 239 239 244 251 256 259
308 302 295 293 295 298 300 303 306 309 310 310 312 316 319 320 323 323 327 338 344 348 352 353 352 353 354 353 345 333 327 320 304 288 272 263 265 270 272 274 270 261 260 266 265 256 248 246 250 262 265 250 240 235 230 225 223 220 219 218 216 217 220 222 222 221 217 216 218 220 225 233 238 243 246 249 250 247 240 236 237 243 249 253 253
309 306 302 298 297 300 301 304 307 309 309 307 307 311 312 314 319 323 326 332 337 338 333 322 317 325 335 338 331 322 316 307 294 288 282 272 270 276 282 286 287 285 283 280 273 265 256 252 252 247 228 209 202 202 205 207 209 213 217 219 216 216 221 224 225 224 224 226 232 237 241 245 246 249 251 252 250 244 237 232 233 236 239 240 241
311 309 308 305 302 302 302 305 309 310 310 311 311 312 313 316 320 326 328 328 332 334 330 318 306 310 318 322 315 309 310 306 296 290 289 281 274 273 274 277 281 284 286 282 269 256 250 245 232 217 211 211 209 209 212 214 217 221 224 226 226 228 231 233 233 234 237 242 247 248 249 250 250 251 252 250 245 238 231 223 221 224 227 229 232
316 313 315 315 312 310 307 308 312 314 317 321 319 317 318 319 318 321 322 320 324 328 328 330 331 319 306 298 292 288 288 285 282 287 293 284 272 269 269 271 273 276 278 279 271 262 260 258 243 221 216 222 227 230 233 235 235 235 235 235 237 238 239 238 240 243 247 250 252 253 253 253 253 252 250 245 238 231 223 217 216 219 222 225 232
339 333 334 332 328 327 323 317 318 324 328 329 325 324 329 332 331 330 329 327 330 334 335 337 339 337 322 303 293 287 282 276 273 275 279 276 266 260 260 263 267 270 274 277 276 271 268 266 259 245 235 232 232 231 233 235 237 238 239 240 244 246 246 245 247 250 252 254 256 257 257 256 254 251 246 240 234 228 222 217 216 216 219 225 234
11 9 1 352 350 350 345 336 336 342 353 359 356 354 358 2 1 356 354 355 357 356 355 353 351 349 343 332 316 304 298 294 287 282 281 281 279 274 271 268 264 262 263 266 270 270 267 263 260 256 250 247 244 242 243 247 250 249 248 251 255 256 255 255 255 257 260 262 262 260 258 255 252 248 241 234 226 218 210 206 206 211 222 233 240
24 25 21 18 16 14 9 4 359 359 7 19 25 28 28 26 25 24 23 24 26 23 17 13 9 6 2 356 351 342 328 320 318 312 304 299 295 290 285 280 274 269 266 264 263 264 264 263 262 260 258 257 256 255 256 258 260 259 259 261 263 263 262 261 261 262 262 261 258 254 250 247 242 235 227 217 207 200 196 200 215 229 238 244 247
33 32 31 33 35 30 25 24 21 16 16 21 27 32 34 33 34 36 38 38 37 36 34 31 26 23 21 18 16 15 7 356 347 339 332 325 319 314 307 299 290 282 275 270 266 264 264 265 266 266 266 266 265 265 265 265 266 267 268 269 269 269 267 264 260 257 253 250 246 242 237 230 222 215 208 199 194 198 209 223 235 241 244 246 248
39 38 36 36 38 38 35 34 34 30 27 27 30 31 32 34 36 38 40 41 40 39 38 38 36 34 33 31 29 28 26 23 18 11 5 359 351 342 337 331 324 316 305 297 289 281 275 273 274 275 276 276 275 274 272 271 271 271 270 271 270 268 265 261 255 249 244 238 232 226 219 211 206 202 196 193 199 213 225 234 239 243 246 247 247
46 42 41 40 39 40 41 39 37 36 33 33 35 35 33 35 37 39 39 39 39 38 37 36 35 35 34 33 32 32 31 29 27 25 22 20 17 14 9 4 359 356 351 345 339 329 317 306 299 294 292 290 288 286 284 281 280 277 274 270 266 259 254 248 242 235 229 220 212 207 201 195 194 196 199 207 221 233 238 242 245 246 246 246 245
53 49 47 47 44 43 44 43 41 41 40 38 38 37 36 36 38 39 38 38 39 39 37 35 34 32 31 29 28 28 29 28 26 25 24 23 22 22 20 16 13 11 8 6 4 1 357 352 348 344 337 328 320 312 305 296 288 280 272 263 252 245 238 228 213 199 190 184 181 184 192 202 217 231 239 244 250 252 249 245 242 241 240 240 240
54 52 51 52 51 49 47 46 45 45 45 43 43 42 41 42 42 42 41 39 39 38 37 36 36 34 32 30 28 25 24 25 22 20 19 18 18 18 20 20 17 13 11 11 11 10 9 8 7 8 8 3 359 354 343 329 316 301 282 251 219 207 198 185 176 173 176 181 189 203 225 241 247 249 249 246 243 241 237 233 230 230 231 232 233
56 54 54 54 54 52 49 47 47 48 47 46 46 45 46 48 48 48 46 43 41 40 38 35 34 34 34 34 33 29 25 22 19 16 14 12 10 11 14 15 14 9 8 9 10 10 11 12 10 11 13 12 11 10 3 356 357 355 336 284 237 221 201 182 181 193 209 231 244 248 251 253 251 248 246 241 237 234 231 228 227 228 229 229 231
55 50 52 55 54 52 51 48 46 48 49 49 47 45 45 46 47 49 49 47 42 41 40 37 34 33 34 35 35 32 30 27 22 17 14 10 8 9 9 8 7 6 5 6 5 5 7 9 6 3 4 6 6 5 0 356 357 353 338 323 312 300 287 270 258 261 263 260 259 258 258 257 253 248 242 236 233 231 229 229 229 231 233 232 233
62 55 55 58 55 48 46 46 44 44 46 47 46 45 44 45 45 45 46 48 47 46 44 40 38 38 39 38 37 35 36 35 30 24 20 16 12 10 9 6 3 2 2 2 359 358 1 6 5 359 355 353 353 353 350 343 336 328 320 315 308 297 287 278 271 268 266 265 265 265 263 259 253 245 237 231 228 227 228 230 232 233 234 235 236
63 57 53 55 52 44 41 43 43 42 42 41 40 41 42 45 47 45 43 44 47 49 48 46 44 43 43 42 41 40 40 40 38 34 31 27 22 18 14 10 6 3 360 357 354 351 354 359 1 356 351 347 344 344 341 333 324 318 313 306 297 289 282 274 270 269 267 265 263 259 254 251 246 240 234 229 228 229 230 233 234 234 234 235 236
57 51 47 49 50 43 39 41 42 41 40 39 37 35 33 34 38 41 44 46 48 48 48 47 46 45 43 41 39 40 40 40 39 39 37 33 28 24 20 16 13 9 4 359 353 349 349 351 352 351 348 343 340 338 333 325 317 311 304 297 291 286 281 276 272 268 265 262 259 254 248 244 238 232 229 228 231 235 236 237 237 235 233 234 236
60 50 46 49 49 41 35 37 38 34 33 39 43 40 32 27 24 25 29 35 40 42 42 42 43 43 43 41 38 38 38 37 36 37 37 34 30 27 23 20 16 12 8 4 359 354 350 349 347 347 344 341 339 336 328 322 317 310 301 294 288 284 280 273 265 258 254 251 244 239 237 235 230 229 232 235 237 238 237 237 236 233 229 230 233
59 53 49 46 46 43 36 33 32 30 31 35 39 40 36 25 16 14 17 20 22 23 24 26 29 31 33 34 34 35 37 36 34 32 31 30 28 26 22 20 16 12 9 6 2 358 355 351 348 347 345 342 339 334 327 321 318 312 304 295 283 273 267 261 257 257 254 247 238 236 239 242 242 242 242 241 238 234 233 234 234 229 223 225 231
57 51 48 40 33 31 32 28 24 26 32 33 32 36 34 17 5 9 15 15 15 16 14 13 15 16 17 19 21 22 24 28 29 27 24 22 22 22 20 17 15 13 11 9 4 359 356 353 350 348 346 343 340 335 329 322 316 310 304 295 284 276 268 261 259 260 257 250 248 249 252 253 253 251 247 243 238 234 232 231 229 225 221 223 231
55 33 35 45 32 17 22 23 17 19 28 31 27 26 23 10 5 11 13 11 13 14 8 4 6 9 9 8 8 8 8 10 14 17 15 13 14 17 16 12 9 10 10 10 8 4 358 354 351 349 345 341 338 333 327 320 312 305 299 293 286 278 272 266 263 262 260 258 259 261 261 260 258 255 249 244 242 239 236 232 227 225 225 227 234
81 24 356 11 11 1 11 15 12 14 19 18 18 20 16 8 5 9 13 12 10 6 2 360 359 359 359 359 359 359 358 358 359 1 2 1 3 7 10 7 3 2 2 2 4 5 1 356 351 348 345 341 337 332 327 319 310 302 297 291 283 275 270 267 266 265 264 264 265 263 261 259 256 250 243 240 237 235 235 233 229 230 234 236 238
94 52 354 353 353 351 351 355 5 17 13 4 9 19 15 9 9 10 7 1 358 2 7 1 348 344 348 353 355 353 351 350 350 352 351 350 349 353 359 1 358 353 352 353 355 357 358 358 354 348 344 341 337 333 328 320 311 305 298 289 280 273 269 267 265 263 262 261 262 262 260 258 255 252 249 247 245 240 238 236 235 238 242 244 244
64 39 186 206 292 325 335 344 360 13 10 6 10 3 350 352 9 16 357 345 352 6 4 345 333 340 348 349 347 350 351 350 349 349 347 344 342 343 347 350 350 347 347 347 347 348 351 357 358 354 349 344 339 334 330 324 318 312 303 291 282 276 271 268 265 262 261 262 262 262 261 259 256 252 247 246 245 242 240 242 244 245 247 248 248
289 299 254 225 254 314 341 349 352 353 358 16 17 341 326 329 345 346 329 324 334 355 346 329 328 339 341 331 331 338 342 343 345 345 342 338 336 336 337 339 341 341 340 339 340 342 344 347 354 356 355 350 343 336 331 328 324 318 307 296 288 281 275 272 269 266 265 266 265 264 261 259 256 251 247 247 246 243 242 245 248 249 252 252 250
284 296 295 283 287 317 328 321 313 318 331 336 320 312 323 334 334 320 320 322 325 336 343 337 335 336 333 329 330 331 332 333 336 336 333 329 328 329 330 330 332 333 333 331 332 334 333 333 337 344 347 348 345 340 333 327 324 319 312 305 297 288 280 275 272 269 267 265 264 265 264 260 255 251 249 248 247 244 243 246 250 251 253 253 249
288 289 293 297 293 291 294 293 286 297 317 325 323 323 333 333 323 318 322 327 336 348 344 334 333 338 341 340 338 335 333 333 332 331 328 325 324 325 326 325 325 327 328 327 326 327 326 324 325 328 330 333 335 336 333 327 320 314 311 307 300 292 286 281 275 272 269 267 264 264 263 259 254 250 248 248 247 244 244 248 251 252 253 252 248
Height
3129 3129 3129 3128 3128 3127 3126 3126 3125 3125 3124 3123 3121 3120 3118 3116 3115 3113 3112 3110 3108 3107 3106 3106 3105 3103 3102 3100 3097 3096 3096 3097 3097 3098 3099 3099 3100 3101 3102 3101 3100 3101 3101 3101 3103 3105 3107 3109 3112 3114 3116 3117 3118 3119 3120 3121 3122 3123 3125 3126 3126 3127 3128 3129 3131 3133 3134 3135 3136 3136 3138 3138 3138 3140 3141 3141 3142 3144 3144 3145 3146 3146 3147 3148 3148
3127 3127 3127 3127 3126 3126 3125 3124 3124 3123 3122 3121 3119 3118 3116 3115 3113 3111 3109 3108 3106 3105 3104 3103 3102 3101 3099 3098 3096 3094 3094 3094 3095 3096 3096 3096 3098 3099 3099 3099 3098 3098 3099 3100 3101 3103 3105 3107 3110 3112 3113 3114 3115 3116 3118 3119 3119 3121 3123 3124 3124 3124 3125 3127 3129 3131 3132 3133 3134 3135 3136 3136 3136 3138 3140 3140 3140 3142 3143 3143 3144 3145 3146 3146 3147
3126 3126 3126 3125 3125 3124 3123 3123 3122 3121 3120 3119 3117 3116 3114 3113 3111 3109 3107 3105 3104 3103 3102 3101 3100 3098 3097 3095 3094 3093 3092 3092 3093 3094 3094 3095 3096 3096 3096 3096 3097 3096 3097 3098 3100 3101 3103 3105 3107 3109 3110 3112 3113 3114 3116 3117 3117 3119 3121 3121 3121 3123 3125 3126 3127 3128 3130 3131 3132 3133 3135 3135 3134 3136 3138 3138 3139 3141 3141 3142 3143 3143 3144 3145 3145
3124 3124 3124 3124 3123 3122 3122 3121 3121 3120 3118 3117 3115 3114 3112 3111 3109 3107 3105 3103 3102 3100 3099 3098 3097 3096 3095 3093 3092 3091 3090 3090 3091 3092 3092 3093 3093 3094 3094 3094 3095 3094 3094 3095 3097 3099 3101 3102 3105 3106 3107 3109 3111 3112 3114 3115 3115 3117 3116 3116 3118 3121 3123 3123 3123 3125 3128 3129 3130 3131 3133 3133 3132 3134 3136 3136 3137 3139 3139 3140 3141 3142 3143 3143 3144
3123 3123 3122 3122 3121 3121 3120 3120 3119 3118 3116 3115 3113 3112 3111 3109 3108 3106 3104 3102 3100 3099 3097 3095 3094 3093 3093 3092 3090 3089 3088 3088 3089 3090 3091 3091 3091 3091 3092 3092 3092 3092 3092 3093 3094 3096 3098 3099 3102 3103 3104 3106 3108 3109 3111 3112 3113 3113 3112 3113 3116 3118 3120 3120 3120 3123 3126 3127 3128 3129 3131 3131 3131 3133 3135 3135 3135 3137 3137 3138 3139 3140 3142 3142 3142
3121 3121 3121 3120 3120 3119 3119 3118 3117 3115 3114 3113 3112 3110 3109 3108 3106 3104 3102 3100 3099 3097 3095 3093 3091 3090 3090 3089 3089 3088 3087 3086 3087 3088 3088 3089 3089 3089 3089 3089 3089 3090 3091 3091 3092 3093 3095 3097 3099 3100 3101 3103 3104 3106 3108 3109 3109 3110 3111 3113 3115 3115 3118 3119 3119 3120 3123 3125 3126 3127 3129 3129 3130 3131 3133 3133 3134 3134 3136 3136 3137 3138 3140 3141 3141
3120 3119 3119 3119 3118 3117 3117 3116 3114 3113 3112 3111 3110 3109 3107 3106 3104 3102 3100 3098 3096 3095 3093 3090 3088 3087 3086 3086 3086 3085 3085 3084 3085 3086 3086 3086 3086 3086 3086 3086 3086 3087 3088 3089 3090 3090 3091 3094 3096 3097 3098 3100 3102 3104 3105 3106 3107 3109 3110 3112 3113 3114 3116 3117 3118 3120 3121 3122 3123 3125 3127 3128 3129 3130 3130 3131 3132 3132 3133 3134 3135 3136 3138 3139 3140
3118 3117 3117 3117 3116 3115 3114 3113 3112 3111 3110 3109 3108 3107 3105 3104 3102 3100 3098 3096 3094 3092 3090 3088 3086 3084 3083 3083 3083 3083 3082 3082 3082 3084 3085 3084 3083 3084 3084 3083 3084 3084 3086 3088 3088 3089 3090 3091 3093 3095 3096 3098 3100 3102 3102 3104 3107 3108 3109 3111 3112 3112 3112 3115 3118 3119 3119 3120 3121 3123 3125 3126 3127 3128 3128 3129 3130 3131 3131 3133 3134 3135 3136 3137 3138
3116 3116 3115 3114 3114 3113 3112 3111 3110 3109 3108 3107 3106 3104 3103 3102 3100 3098 3096 3094 3092 3090 3088 3085 3083 3081 3081 3080 3079 3079 3079 3079 3080 3081 3082 3082 3081 3080 3080 3081 3081 3082 3083 3084 3086 3087 3088 3090 3091 3093 3094 3095 3098 3099 3100 3102 3105 3106 3107 3108 3109 3110 3111 3113 3115 3116 3116 3118 3120 3122 3123 3124 3125 3126 3126 3128 3129 3130 3131 3131 3132 3134 3135 3136 3137
3114 3114 3113 3112 3112 3111 3110 3109 3108 3107 3106 3105 3103 3102 3101 3099 3098 3096 3094 3092 3090 3087 3085 3083 3081 3079 3078 3077 3076 3076 3076 3077 3078 3078 3078 3079 3078 3078 3077 3078 3079 3079 3080 3081 3082 3084 3085 3086 3089 3090 3091 3093 3095 3096 3097 3098 3101 3103 3104 3104 3105 3108 3110 3111 3113 3113 3114 3116 3118 3120 3121 3122 3124 3125 3125 3127 3128 3129 3129 3130 3131 3133 3134 3134 3135
3112 3112 3111 3110 3110 3109 3108 3107 3106 3105 3104 3102 3101 3100 3098 3097 3095 3093 3092 3090 3087 3085 3082 3080 3078 3077 3075 3074 3074 3074 3074 3074 3074 3074 3074 3075 3075 3075 3075 3075 3076 3077 3078 3078 3079 3081 3082 3083 3085 3087 3087 3090 3093 3093 3093 3094 3096 3099 3100 3100 3101 3105 3107 3109 3110 3111 3112 3114 3116 3117 3118 3120 3122 3123 3124 3126 3127 3126 3128 3129 3130 3131 3132 3133 3133
3110 3110 3109 3108 3108 3107 3106 3105 3104 3103 3102 3100 3099 3097 3096 3094 3092 3091 3089 3087 3085 3082 3080 3078 3076 3075 3073 3072 3071 3071 3071 3071 3071 3071 3071 3071 3070 3071 3072 3072 3073 3073 3075 3076 3076 3078 3080 3081 3082 3084 3085 3087 3089 3090 3090 3091 3093 3095 3097 3098 3099 3102 3104 3106 3108 3109 3110 3112 3114 3115 3116 3118 3120 3121 3123 3124 3124 3125 3126 3127 3128 3129 3130 3131 3132
3108 3108 3107 3106 3106 3105 3104 3103 3102 3101 3099 3098 3097 3095 3093 3092 3090 3088 3086 3084 3082 3080 3077 3075 3074 3072 3071 3070 3069 3068 3068 3068 3068 3069 3070 3069 3068 3068 3070 3070 3070 3071 3072 3073 3074 3076 3077 3078 3079 3082 3083 3084 3087 3088 3089 3090 3092 3094 3095 3096 3097 3100 3102 3104 3105 3106 3108 3110 3111 3112 3114 3116 3117 3118 3120 3122 3122 3123 3125 3125 3126 3127 3128 3129 3131
3106 3106 3105 3104 3104 3103 3102 3101 3100 3098 3097 3096 3094 3093 3091 3089 3087 3085 3083 3082 3079 3077 3075 3073 3071 3070 3069 3068 3067 3066 3066 3066 3065 3066 3067 3067 3067 3068 3069 3069 3069 3069 3070 3071 3073 3074 3075 3075 3076 3079 3080 3082 3084 3086 3087 3088 3089 3091 3093 3095 3096 3098 3099 3100 3101 3102 3105 3107 3109 3110 3111 3113 3114 3115 3117 3119 3120 3122 3123 3124 3125 3126 3127 3128 3129
3104 3104 3103 3102 3102 3101 3100 3099 3098 3096 3095 3094 3092 3091 3089 3087 3085 3083 3081 3079 3077 3075 3073 3071 3069 3068 3067 3065 3064 3064 3064 3064 3064 3064 3064 3064 3065 3066 3067 3067 3067 3068 3068 3069 3072 3073 3073 3074 3075 3076 3078 3079 3081 3084 3084 3085 3087 3089 3091 3093 3094 3095 3097 3098 3099 3101 3103 3105 3106 3107 3109 3110 3112 3113 3115 3117 3118 3120 3121 3123 3124 3125 3125 3125 3125
3102 3101 3101 3100 3099 3098 3097 3096 3095 3094 3093 3092 3090 3088 3086 3085 3083 3081 3079 3077 3075 3073 3071 3069 3067 3066 3065 3064 3063 3062 3062 3061 3062 3062 3061 3062 3062 3064 3065 3065 3065 3066 3067 3068 3070 3071 3072 3073 3074 3075 3076 3077 3080 3082 3082 3083 3085 3087 3089 3090 3092 3093 3094 3096 3098 3100 3102 3103 3104 3106 3107 3108 3110 3112 3113 3115 3116 3117 3119 3120 3121 3122 3122 3123 3124
3099 3099 3098 3098 3097 3096 3095 3094 3093 3092 3091 3090 3088 3086 3084 3082 3081 3079 3077 3075 3073 3071 3069 3067 3066 3064 3063 3062 3061 3060 3059 3059 3059 3060 3060 3060 3060 3061 3063 3063 3064 3064 3065 3066 3067 3069 3070 3071 3072 3073 3074 3075 3077 3080 3081 3082 3084 3085 3086 3088 3089 3091 3092 3094 3096 3097 3099 3100 3102 3104 3105 3107 3109 3110 3111 3113 3114 3115 3116 3117 3118 3119 3119 3120 3122
3098 3097 3096 3095 3095 3094 3093 3092 3091 3090 3089 3088 3086 3084 3082 3080 3079 3077 3075 3073 3071 3069 3068 3066 3064 3063 3061 3060 3059 3058 3057 3057 3057 3058 3058 3059 3059 3060 3060 3061 3062 3063 3064 3065 3066 3067 3068 3069 3070 3072 3073 3074 3075 3078 3081 3083 3083 3083 3084 3086 3087 3088 3090 3091 3092 3093 3095 3098 3099 3101 3103 3105 3107 3107 3109 3110 3112 3113 3114 3115 3116 3115 3116 3117 3119
3096 3095 3094 3094 3093 3092 3091 3090 3089 3088 3087 3086 3084 3083 3081 3079 3077 3075 3074 3072 3070 3068 3066 3064 3063 3062 3060 3059 3058 3057 3056 3056 3056 3057 3058 3058 3058 3058 3059 3059 3060 3061 3062 3063 3064 3065 3066 3067 3069 3070 3071 3072 3074 3077 3080 3082 3082 3082 3083 3085 3085 3086 3088 3089 3090 3090 3093 3095 3097 3099 3100 3102 3104 3105 3106 3108 3109 3110 3111 3113 3113 3113 3113 3113 3114
3095 3094 3093 3092 3091 3090 3089 3088 3087 3086 3086 3084 3083 3081 3079 3077 3076 3074 3072 3071 3069 3067 3065 3063 3062 3060 3059 3058 3057 3057 3057 3056 3056 3056 3057 3058 3057 3057 3058 3058 3058 3059 3060 3061 3062 3064 3065 3066 3068 3069 3070 3071 3073 3076 3078 3080 3081 3081 3082 3083 3084 3085 3087 3089 3089 3089 3092 3094 3096 3097 3098 3099 3101 3102 3104 3105 3106 3107 3108 3109 3109 3109 3109 3109 3111
3093 3092 3091 3091 3090 3089 3088 3087 3086 3085 3084 3083 3081 3080 3078 3077 3075 3073 3071 3070 3068 3066 3064 3063 3061 3060 3059 3058 3058 3058 3058 3058 3056 3055 3055 3056 3056 3056 3056 3057 3057 3058 3059 3060 3062 3064 3065 3066 3067 3069 3070 3071 3072 3074 3077 3078 3080 3080 3080 3081 3083 3084 3086 3087 3087 3087 3089 3091 3092 3093 3095 3096 3098 3100 3101 3102 3103 3104 3104 3105 3105 3105 3105 3106 3108
3091 3091 3090 3089 3088 3087 3086 3085 3084 3083 3081 3081 3080 3079 3077 3076 3074 3072 3070 3069 3067 3066 3064 3063 3061 3060 3059 3059 3059 3059 3059 3059 3058 3056 3055 3055 3055 3056 3056 3057 3057 3059 3059 3060 3061 3063 3065 3066 3067 3068 3070 3070 3071 3073 3075 3076 3078 3078 3079 3080 3081 3083 3084 3085 3084 3084 3086 3087 3089 3091 3093 3095 3096 3098 3098 3099 3100 3100 3101 3101 3101 3101 3102 3103 3105
3090 3089 3088 3088 3087 3086 3085 3084 3083 3081 3080 3079 3078 3077 3076 3075 3073 3072 3070 3068 3067 3065 3064 3063 3062 3061 3060 3060 3059 3059 3059 3059 3058 3058 3056 3056 3056 3056 3056 3057 3058 3059 3059 3060 3061 3063 3064 3065 3066 3067 3069 3070 3071 3072 3073 3074 3076 3077 3077 3078 3079 3080 3081 3082 3082 3082 3083 3085 3087 3089 3091 3092 3093 3094 3094 3095 3095 3096 3097 3097 3098 3098 3099 3100 3101
3088 3088 3087 3086 3085 3085 3083 3082 3081 3080 3079 3078 3077 3076 3075 3074 3072 3071 3070 3068 3067 3065 3064 3063 3062 3062 3061 3060 3060 3059 3059 3059 3059 3058 3058 3057 3057 3057 3057 3058 3059 3060 3060 3060 3061 3062 3063 3064 3065 3067 3067 3068 3068 3069 3071 3072 3073 3074 3075 3076 3077 3078 3078 3079 3080 3081 3082 3083 3084 3086 3087 3087 3089 3090 3090 3091 3092 3093 3093 3094 3094 3095 3095 3096 3098
3086 3086 3085 3085 3084 3083 3082 3081 3080 3079 3078 3077 3076 3075 3074 3073 3072 3070 3069 3068 3066 3065 3065 3063 3062 3062 3061 3061 3060 3059 3059 3059 3059 3059 3059 3058 3058 3058 3058 3058 3059 3059 3060 3060 3061 3061 3062 3063 3064 3066 3066 3066 3066 3067 3068 3069 3070 3071 3072 3073 3073 3074 3075 3076 3077 3078 3078 3079 3081 3082 3083 3084 3086 3087 3088 3088 3089 3089 3089 3090 3091 3092 3093 3094 3095
3086 3085 3084 3084 3083 3082 3081 3080 3078 3077 3076 3075 3074 3074 3073 3072 3071 3070 3068 3067 3066 3065 3064 3064 3063 3062 3061 3061 3060 3060 3059 3059 3059 3059 3059 3059 3059 3059 3059 3059 3059 3059 3059 3059 3060 3060 3062 3063 3063 3064 3066 3066 3065 3066 3066 3066 3067 3067 3068 3069 3069 3070 3071 3072 3074 3075 3076 3077 3079 3080 3081 3082 3083 3084 3084 3084 3085 3085 3086 3087 3088 3089 3091 3092 3092
3085 3084 3083 3083 3082 3081 3080 3079 3078 3076 3075 3074 3073 3072 3072 3071 3070 3069 3068 3067 3066 3065 3064 3063 3062 3061 3061 3060 3060 3060 3059 3059 3058 3058 3058 3058 3058 3058 3059 3059 3058 3058 3058 3058 3059 3060 3061 3062 3063 3063 3064 3065 3065 3065 3066 3066 3066 3066 3067 3067 3068 3069 3069 3070 3071 3073 3074 3075 3076 3077 3077 3078 3079 3080 3080 3080 3081 3081 3082 3083 3085 3086 3087 3088 3089
3085 3084 3083 3082 3081 3080 3079 3078 3077 3076 3075 3074 3073 3072 3071 3070 3069 3068 3067 3066 3066 3065 3064 3063 3062 3061 3061 3060 3060 3060 3060 3060 3059 3059 3058 3058 3058 3058 3058 3058 3058 3058 3058 3058 3059 3060 3060 3061 3062 3063 3063 3063 3063 3064 3065 3065 3065 3065 3065 3066 3066 3067 3068 3068 3069 3070 3071 3072 3073 3073 3074 3074 3075 3076 3076 3076 3076 3077 3078 3080 3081 3083 3084 3085 3086
3085 3084 3083 3082 3081 3080 3078 3078 3077 3076 3075 3074 3073 3072 3071 3070 3069 3068 3067 3066 3065 3064 3063 3063 3062 3061 3061 3060 3060 3059 3059 3059 3059 3059 3059 3058 3058 3058 3058 3058 3058 3058 3058 3058 3059 3059 3059 3060 3061 3062 3062 3062 3062 3062 3063 3063 3063 3063 3063 3064 3064 3065 3066 3066 3067 3067 3068 3068 3069 3070 3070 3071 3071 3072 3072 3072 3073 3074 3076 3077 3078 3080 3081 3083 3084
3085 3084 3083 3082 3081 3080 3078 3077 3076 3076 3075 3074 3073 3072 3071 3070 3069 3068 3067 3066 3065 3064 3063 3062 3062 3061 3061 3060 3059 3059 3058 3058 3058 3058 3058 3058 3058 3057 3058 3058 3058 3058 3058 3058 3058 3058 3058 3058 3059 3059 3060 3060 3060 3061 3061 3061 3062 3062 3062 3062 3063 3063 3064 3064 3064 3065 3065 3066 3066 3067 3067 3068 3068 3069 3069 3070 3071 3072 3074 3075 3076 3078 3079 3081 3082
3085 3084 3084 3082 3082 3081 3079 3078 3077 3076 3075 3075 3074 3073 3072 3071 3069 3068 3067 3066 3065 3064 3063 3062 3062 3061 3060 3060 3059 3058 3058 3057 3057 3057 3057 3057 3057 3056 3056 3056 3056 3056 3056 3057 3057 3057 3057 3057 3057 3057 3057 3058 3058 3058 3058 3059 3059 3059 3060 3060 3060 3061 3061 3061 3062 3062 3062 3063 3063 3063 3064 3065 3066 3066 3067 3069 3070 3071 3072 3074 3075 3077 3078 3079 3080
3086 3085 3084 3083 3082 3082 3080 3079 3078 3077 3076 3075 3074 3074 3073 3072 3071 3069 3068 3067 3066 3065 3064 3063 3062 3061 3060 3060 3059 3058 3058 3058 3057 3057 3056 3056 3056 3055 3055 3055 3055 3055 3054 3054 3055 3055 3055 3055 3055 3055 3055 3056 3056 3056 3056 3056 3056 3056 3057 3057 3057 3058 3058 3058 3059 3059 3059 3059 3060 3061 3062 3063 3064 3065 3066 3068 3069 3070 3071 3073 3074 3075 3076 3077 3077
3087 3086 3085 3084 3083 3083 3082 3081 3080 3078 3077 3076 3075 3075 3074 3073 3072 3071 3070 3069 3068 3067 3066 3065 3064 3063 3062 3061 3060 3059 3059 3058 3057 3057 3056 3056 3056 3055 3055 3054 3054 3054 3053 3053 3053 3053 3053 3053 3053 3053 3053 3053 3054 3054 3054 3054 3054 3054 3054 3054 3055 3055 3055 3055 3056 3056 3057 3057 3058 3059 3060 3061 3063 3064 3065 3066 3067 3069 3070 3071 3073 3074 3074 3075 3075
3087 3087 3086 3085 3085 3084 3083 3082 3081 3080 3079 3078 3077 3076 3075 3074 3073 3072 3071 3070 3069 3068 3067 3066 3065 3064 3063 3063 3062 3061 3060 3059 3059 3058 3057 3057 3056 3056 3055 3055 3054 3054 3054 3053 3053 3053 3053 3052 3052 3052 3052 3052 3052 3052 3052 3052 3052 3052 3053 3053 3053 3053 3053 3054 3055 3055 3056 3057 3058 3059 3060 3062 3063 3064 3065 3066 3067 3068 3069 3071 3072 3072 3073 3073 3074
3088 3088 3087 3086 3086 3085 3084 3083 3082 3081 3080 3079 3078 3077 3076 3075 3074 3073 3072 3071 3070 3069 3068 3067 3066 3065 3064 3064 3063 3062 3061 3061 3060 3059 3058 3058 3057 3056 3056 3055 3055 3054 3054 3054 3054 3053 3053 3053 3052 3052 3052 3052 3052 3051 3051 3051 3051 3052 3052 3053 3053 3053 3054 3054 3055 3056 3056 3057 3058 3059 3060 3061 3062 3063 3064 3065 3067 3068 3069 3070 3070 3071 3072 3072 3072
3089 3089 3088 3087 3087 3086 3085 3084 3084 3083 3082 3081 3080 3079 3078 3077 3076 3075 3074 3073 3072 3071 3070 3069 3068 3067 3066 3065 3064 3063 3062 3062 3061 3060 3060 3059 3058 3057 3057 3057 3056 3056 3055 3055 3055 3055 3054 3054 3054 3053 3053 3053 3052 3052 3052 3052 3052 3052 3053 3053 3053 3054 3054 3055 3055 3056 3057 3057 3058 3059 3060 3061 3062 3062 3063 3065 3066 3067 3067 3068 3069 3070 3070 3070 3071
3091 3090 3089 3088 3088 3087 3086 3086 3085 3084 3083 3082 3081 3081 3080 3079 3078 3077 3076 3075 3073 3072 3071 3070 3069 3068 3067 3066 3066 3065 3064 3063 3062 3062 3061 3060 3059 3059 3058 3058 3057 3057 3057 3056 3056 3056 3056 3055 3055 3054 3054 3054 3054 3054 3054 3053 3054 3054 3054 3054 3054 3055 3055 3055 3056 3056 3057 3058 3058 3059 3060 3060 3061 3062 3063 3064 3065 3066 3067 3067 3068 3068 3069 3069 3069
3092 3091 3090 3090 3089 3088 3088 3087 3086 3085 3084 3083 3083 3082 3081 3080 3079 3078 3077 3076 3075 3074 3073 3072 3071 3070 3069 3068 3067 3066 3065 3064 3064 3063 3062 3061 3061 3060 3059 3058 3058 3057 3057 3057 3056 3056 3056 3056 3056 3055 3055 3055 3055 3055 3055 3055 3055 3055 3055 3055 3055 3056 3056 3056 3057 3057 3057 3058 3058 3059 3060 3060 3061 3062 3063 3064 3065 3065 3066 3066 3067 3067 3068 3068 3068
3093 3092 3092 3091 3090 3090 3089 3088 3087 3086 3085 3085 3084 3083 3082 3081 3080 3079 3079 3078 3077 3076 3075 3073 3072 3071 3070 3069 3068 3068 3067 3066 3065 3064 3063 3063 3062 3061 3060 3060 3059 3059 3058 3058 3057 3057 3057 3057 3057 3056 3056 3056 3056 3056 3056 3056 3056 3056 3056 3056 3056 3056 3056 3057 3057 3057 3058 3058 3059 3059 3060 3061 3061 3062 3063 3063 3064 3065 3065 3065 3066 3066 3067 3067 3067
3094 3093 3093 3092 3091 3091 3090 3090 3089 3088 3087 3086 3085 3084 3083 3083 3082 3081 3080 3079 3078 3077 3076 3075 3074 3073 3072 3071 3070 3069 3068 3067 3067 3066 3065 3064 3063 3063 3062 3061 3061 3060 3060 3059 3058 3058 3058 3058 3058 3057 3057 3056 3056 3056 3056 3056 3055 3055 3056 3056 3056 3056 3057 3057 3057 3057 3058 3058 3059 3059 3060 3060 3061 3062 3062 3063 3063 3063 3064 3064 3065 3065 3065 3065 3065
3095 3095 3094 3093 3093 3092 3092 3091 3090 3089 3088 3087 3086 3086 3085 3084 3083 3082 3081 3081 3079 3078 3077 3076 3075 3074 3073 3073 3072 3070 3069 3068 3068 3067 3066 3065 3065 3064 3063 3062 3062 3061 3061 3060 3059 3059 3058 3058 3058 3058 3057 3057 3057 3056 3056 3056 3056 3055 3056 3056 3056 3056 3056 3057 3057 3057 3058 3058 3059 3059 3060 3060 3061 3061 3062 3062 3062 3062 3063 3063 3064 3064 3064 3064 3064
3096 3096 3095 3095 3094 3094 3093 3092 3091 3090 3089 3089 3088 3087 3087 3086 3085 3083 3082 3081 3080 3079 3078 3077 3076 3076 3075 3074 3073 3072 3071 3070 3069 3068 3067 3067 3066 3065 3064 3064 3063 3062 3061 3061 3060 3059 3059 3059 3058 3058 3058 3057 3057 3057 3056 3056 3056 3055 3055 3056 3056 3056 3056 3057 3057 3057 3057 3058 3059 3059 3059 3060 3060 3060 3060 3061 3061 3062 3062 3062 3063 3063 3063 3063 3063
3097 3097 3096 3096 3095 3095 3094 3093 3092 3092 3091 3090 3089 3088 3088 3087 3086 3085 3084 3083 3081 3080 3079 3078 3077 3076 3075 3075 3074 3073 3072 3071 3070 3069 3068 3068 3067 3066 3065 3065 3064 3063 3062 3061 3061 3060 3059 3059 3058 3058 3058 3057 3057 3056 3056 3056 3056 3055 3055 3056 3056 3056 3056 3056 3057 3057 3057 3058 3058 3059 3059 3059 3059 3060 3060 3060 3060 3061 3061 3062 3062 3062 3062 3062 3062
3098 3098 3097 3097 3096 3095 3095 3094 3093 3092 3092 3091 3090 3090 3089 3089 3088 3086 3085 3084 3083 3082 3081 3080 3078 3077 3076 3075 3074 3073 3072 3072 3071 3070 3069 3069 3068 3067 3066 3065 3065 3064 3063 3062 3061 3060 3059 3059 3058 3058 3057 3057 3056 3056 3056 3056 3056 3055 3055 3056 3056 3056 3056 3056 3056 3057 3057 3057 3057 3058 3058 3058 3058 3059 3059 3059 3060 3060 3060 3061 3061 3061 3061 3061 3061
3098 3098 3098 3097 3097 3096 3095 3094 3094 3093 3092 3092 3091 3090 3090 3089 3088 3087 3086 3085 3084 3083 3082 3081 3080 3079 3078 3077 3075 3074 3073 3072 3071 3071 3070 3070 3069 3068 3067 3066 3065 3064 3063 3063 3062 3061 3060 3059 3058 3058 3057 3057 3056 3056 3056 3055 3055 3055 3055 3055 3056 3056 3056 3056 3056 3056 3056 3057 3057 3057 3057 3057 3058 3058 3058 3059 3059 3059 3060 3060 3060 3060 3060 3060 3061
3098 3098 3098 3098 3097 3096 3095 3095 3094 3093 3093 3092 3091 3091 3090 3089 3088 3088 3087 3086 3085 3084 3083 3082 3081 3080 3079 3078 3077 3076 3074 3073 3072 3071 3070 3069 3069 3068 3068 3067 3066 3065 3064 3063 3062 3061 3060 3059 3058 3058 3057 3057 3056 3056 3055 3055 3055 3055 3055 3055 3055 3055 3055 3055 3055 3055 3056 3056 3056 3057 3057 3057 3057 3057 3058 3058 3058 3059 3059 3059 3059 3059 3060 3060 3060
3098 3098 3098 3098 3097 3096 3095 3095 3094 3093 3093 3092 3092 3091 3090 3090 3089 3088 3087 3087 3086 3085 3084 3083 3082 3081 3080 3078 3078 3077 3075 3074 3073 3071 3070 3069 3068 3067 3067 3067 3066 3065 3064 3063 3062 3061 3060 3059 3058 3057 3057 3056 3056 3055 3055 3055 3054 3054 3054 3054 3054 3054 3054 3054 3055 3055 3055 3055 3055 3055 3056 3056 3056 3057 3057 3057 3058 3058 3058 3058 3058 3059 3059 3059 3059
3098 3098 3098 3098 3097 3096 3095 3095 3094 3093 3093 3092 3092 3091 3090 3090 3089 3089 3088 3087 3086 3086 3085 3084 3083 3082 3080 3079 3078 3077 3075 3074 3073 3072 3070 3069 3068 3067 3066 3066 3066 3065 3064 3063 3062 3061 3060 3059 3058 3057 3056 3056 3055 3054 3054 3054 3053 3053 3053 3053 3053 3053 3053 3054 3054 3054 3054 3054 3054 3054 3055 3055 3055 3056 3056 3056 3057 3057 3057 3057 3058 3058 3058 3058 3058
3098 3097 3097 3097 3096 3096 3095 3095 3094 3093 3093 3092 3092 3091 3090 3090 3089 3088 3088 3087 3086 3085 3085 3084 3083 3082 3081 3079 3078 3077 3075 3074 3073 3072 3071 3069 3068 3066 3066 3065 3065 3064 3064 3063 3062 3061 3060 3059 3058 3057 3056 3055 3054 3054 3053 3053 3052 3052 3052 3052 3052 3052 3052 3052 3053 3053 3053 3053 3053 3053 3053 3054 3054 3054 3055 3055 3055 3056 3056 3056 3057 3057 3057 3057 3056
3097 3097 3096 3096 3096 3095 3095 3094 3094 3093 3092 3092 3091 3091 3090 3089 3088 3088 3087 3086 3085 3085 3084 3083 3082 3081 3080 3079 3078 3077 3076 3074 3073 3072 3071 3070 3068 3067 3066 3064 3064 3063 3063 3062 3061 3060 3060 3058 3057 3056 3056 3055 3054 3053 3052 3052 3051 3051 3051 3051 3051 3051 3051 3051 3051 3051 3052 3052 3052 3052 3052 3053 3053 3053 3053 3054 3054 3055 3055 3055 3055 3055 3055 3055 3055
3097 3096 3096 3095 3095 3095 3094 3094 3093 3092 3091 3091 3090 3090 3089 3088 3087 3087 3086 3085 3084 3084 3083 3082 3081 3080 3079 3079 3078 3077 3075 3074 3073 3072 3071 3069 3068 3067 3066 3064 3063 3062 3062 3061 3060 3059 3059 3058 3057 3056 3055 3054 3053 3052 3052 3051 3050 3050 3050 3050 3049 3049 3049 3049 3049 3050 3050 3050 3050 3050 3051 3051 3051 3051 3052 3052 3053 3053 3054 3054 3054 3054 3054 3054 3054